Location: Laura�t
(43.9341°N, 0.2497°E)
Time: 23:51:59
(UTC+00:00)

Cosmos 2360 Rocket - Pass Details

Date: 03 March 2021
Orbit: 832 x 846 km, 71.0° (Epoch: 17 April)

Event Time Altitude Azimuth Distance (km) Brightness Sun altitude
Rises 18:35:44 0° 186° (S) 3,372 5.4 -9.0°
Reaches altitude 10° 18:38:14 10° 180° (S) 2,444 4.6 -9.4°
Maximum altitude 18:43:35 48° 108° (ESE) 1,095 2.4 -10.4°
Drops below altitude 10° 18:48:59 10° 36° (NE) 2,469 4.3 -11.4°
Sets 18:51:31 0° 31° (NNE) 3,410 5.1 -11.8°
